| time (UTC) | temp F | wind direction | speed MPH | gust MPH | rain 1hr in | rain 24hr in | rain mn in | humidity % | barometer mb |
| 20260510160323 | 60 | 5 | 7.0 | 10.0 | 0.00 | 0.00 | 0.00 | 40 | 1021.6 |
| 20260510155822 | 61 | 352 | 4.0 | 12.0 | 0.00 | 0.00 | 0.00 | 42 | 1021.8 |
| 20260510155321 | 60 | 32 | 1.0 | 8.0 | 0.00 | 0.00 | 0.00 | 1021.7 | |
| 20260510154821 | 60 | 104 | 5.0 | 13.0 | 0.00 | 0.00 | 0.00 | 39 | 1021.7 |
| 20260510154319 | 60 | 22 | 2.0 | 11.0 | 0.00 | 0.00 | 0.00 | 41 | 1021.7 |
| 20260510153818 | 61 | 75 | 6.0 | 11.0 | 0.00 | 0.00 | 0.00 | 39 | 1021.6 |
| 20260510153317 | 61 | 97 | 7.0 | 10.0 | 0.00 | 0.00 | 0.00 | 42 | 1021.5 |
| 20260510152816 | 60 | 80 | 4.0 | 12.0 | 0.00 | 0.00 | 0.00 | 41 | 1021.3 |
| 20260510152315 | 60 | 39 | 4.0 | 6.0 | 0.00 | 0.00 | 0.00 | 44 | 1021.1 |
| 20260510151814 | 60 | 95 | 5.0 | 16.0 | 0.00 | 0.00 | 0.00 | 43 | 1021.0 |
| 20260510151314 | 60 | 71 | 7.0 | 12.0 | 0.00 | 0.00 | 0.00 | 44 | 1021.0 |
| 20260510150813 | 59 | 16 | 1.0 | 9.0 | 0.00 | 0.00 | 0.00 | 44 | 1021.0 |
| 20260510150311 | 59 | 67 | 2.0 | 9.0 | 0.00 | 0.00 | 0.00 | 42 | 1021.1 |
| 20260510145811 | 59 | 109 | 5.0 | 9.0 | 0.00 | 0.00 | 0.00 | 44 | 1021.1 |
| 20260510145310 | 58 | 32 | 3.0 | 9.0 | 0.00 | 0.00 | 0.00 | 45 | 1021.2 |
| 20260510144808 | 58 | 18 | 7.0 | 10.0 | 0.00 | 0.00 | 0.00 | 46 | 1021.2 |
| 20260510144307 | 58 | 9 | 2.0 | 7.0 | 0.00 | 0.00 | 0.00 | 47 | 1021.2 |
| 20260510143806 | 58 | 97 | 0.0 | 9.0 | 0.00 | 0.00 | 0.00 | 46 | 1021.2 |
| 20260510143306 | 57 | 39 | 0.0 | 8.0 | 0.00 | 0.00 | 0.00 | 46 | 1021.3 |
| 20260510142804 | 57 | 90 | 2.0 | 6.0 | 0.00 | 0.00 | 0.00 | 46 | 1021.3 |
| 20260510142306 | 57 | 25 | 5.0 | 10.0 | 0.00 | 0.00 | 0.00 | 45 | 1021.4 |
| 20260510141802 | 57 | 99 | 5.0 | 10.0 | 0.00 | 0.00 | 0.00 | 46 | 1021.4 |
| 20260510141301 | 57 | 12 | 4.0 | 8.0 | 0.00 | 0.00 | 0.00 | 49 | 1021.2 |
| 20260510140800 | 57 | 345 | 0.0 | 8.0 | 0.00 | 0.00 | 0.00 | 48 | 1021.2 |
| 20260510140259 | 56 | 40 | 2.0 | 6.0 | 0.00 | 0.00 | 0.00 | 51 | 1021.0 |
| 20260510135758 | 56 | 341 | 3.0 | 7.0 | 0.00 | 0.00 | 0.00 | 50 | 1021.0 |
| 20260510135258 | 56 | 355 | 0.0 | 7.0 | 0.00 | 0.00 | 0.00 | 50 | 1021.0 |
| 20260510134756 | 55 | 120 | 3.0 | 4.0 | 0.00 | 0.00 | 0.00 | 51 | 1021.1 |
| 20260510134255 | 55 | 26 | 0.0 | 8.0 | 0.00 | 0.00 | 0.00 | 50 | 1021.0 |
| 20260510133754 | 55 | 21 | 6.0 | 6.0 | 0.00 | 0.00 | 0.00 | 51 | 1020.8 |
| 20260510133253 | 55 | 32 | 0.0 | 4.0 | 0.00 | 0.00 | 0.00 | 51 | 1020.9 |
| 20260510132752 | 55 | 68 | 0.0 | 7.0 | 0.00 | 0.00 | 0.00 | 49 | 1020.9 |
| 20260510132251 | 55 | 43 | 0.0 | 9.0 | 0.00 | 0.00 | 0.00 | 49 | 1020.6 |
| 20260510131750 | 55 | 18 | 4.0 | 12.0 | 0.00 | 0.00 | 0.00 | 48 | 1020.6 |
| 20260510131249 | 55 | 16 | 1.0 | 6.0 | 0.00 | 0.00 | 0.00 | 50 | 1020.5 |
| 20260510130748 | 55 | 11 | 2.0 | 7.0 | 0.00 | 0.00 | 0.00 | 49 | 1020.4 |
| 20260510130247 | 55 | 66 | 0.0 | 5.0 | 0.00 | 0.00 | 0.00 | 51 | 1020.4 |
| 20260510125746 | 55 | 63 | 0.0 | 6.0 | 0.00 | 0.00 | 0.00 | 51 | 1020.5 |
| 20260510125245 | 55 | 9 | 0.0 | 9.0 | 0.00 | 0.00 | 0.00 | 50 | 1020.5 |
| 20260510124744 | 55 | 39 | 6.0 | 9.0 | 0.00 | 0.00 | 0.00 | 49 | 1020.3 |
| 20260510124243 | 55 | 64 | 3.0 | 5.0 | 0.00 | 0.00 | 0.00 | 48 | 1020.2 |
| 20260510123742 | 55 | 358 | 1.0 | 9.0 | 0.00 | 0.00 | 0.00 | 47 | 1020.0 |
| 20260510123241 | 55 | 66 | 2.0 | 10.0 | 0.00 | 0.00 | 0.00 | 47 | 1019.8 |
| 20260510122740 | 55 | 82 | 3.0 | 12.0 | 0.00 | 0.00 | 0.00 | 46 | 1019.6 |
| 20260510122239 | 55 | 42 | 11.0 | 12.0 | 0.00 | 0.00 | 0.00 | 48 | 1019.7 |
| 20260510121738 | 55 | 358 | 2.0 | 9.0 | 0.00 | 0.00 | 0.00 | 47 | 1019.6 |
| 20260510121237 | 55 | 39 | 4.0 | 9.0 | 0.00 | 0.00 | 0.00 | 46 | 1019.3 |
| 20260510120736 | 55 | 54 | 0.0 | 11.0 | 0.00 | 0.00 | 0.00 | 48 | 1019.2 |
| 20260510120235 | 56 | 102 | 2.0 | 8.0 | 0.00 | 0.00 | 0.00 | 48 | 1018.9 |
| 20260510115734 | 56 | 142 | 3.0 | 8.0 | 0.00 | 0.00 | 0.00 | 48 | 1018.8 |
| 20260510115233 | 56 | 57 | 0.0 | 8.0 | 0.00 | 0.00 | 0.00 | 47 | 1018.9 |
| 20260510114732 | 56 | 8 | 2.0 | 9.0 | 0.00 | 0.00 | 0.00 | 46 | 1018.7 |
| 20260510114231 | 56 | 26 | 0.0 | 7.0 | 0.00 | 0.00 | 0.00 | 46 | 1018.6 |
| 20260510113730 | 56 | 28 | 3.0 | 6.0 | 0.00 | 0.00 | 0.00 | 46 | 1018.4 |
| 20260510113230 | 56 | 36 | 3.0 | 9.0 | 0.00 | 0.00 | 0.00 | 46 | 1018.6 |
| 20260510112729 | 56 | 29 | 1.0 | 6.0 | 0.00 | 0.00 | 0.00 | 47 | 1018.5 |
| 20260510112227 | 56 | 348 | 0.0 | 9.0 | 0.00 | 0.00 | 0.00 | 47 | 1018.4 |
| 20260510111726 | 56 | 16 | 0.0 | 9.0 | 0.00 | 0.00 | 0.00 | 46 | 1018.6 |
| 20260510111225 | 56 | 32 | 2.0 | 9.0 | 0.00 | 0.00 | 0.00 | 45 | 1018.5 |
| 20260510110724 | 56 | 2 | 5.0 | 9.0 | 0.00 | 0.00 | 0.00 | 45 | 1018.3 |
| 20260510110223 | 57 | 358 | 1.0 | 12.0 | 0.00 | 0.00 | 0.00 | 46 | 1018.2 |
| 20260510105722 | 57 | 330 | 0.0 | 8.0 | 0.00 | 0.00 | 0.00 | 45 | 1018.3 |
| 20260510105221 | 57 | 18 | 0.0 | 10.0 | 0.00 | 0.00 | 0.00 | 46 | 1018.4 |
| 20260510104720 | 57 | 18 | 1.0 | 7.0 | 0.00 | 0.00 | 0.00 | 46 | 1018.2 |
| 20260510104219 | 57 | 21 | 2.0 | 13.0 | 0.00 | 0.00 | 0.00 | 45 | 1018.0 |
| 20260510103718 | 57 | 56 | 2.0 | 7.0 | 0.00 | 0.00 | 0.00 | 46 | 1018.0 |
| 20260510103217 | 57 | 12 | 1.0 | 11.0 | 0.00 | 0.00 | 0.00 | 46 | 1018.0 |
| 20260510102716 | 57 | 12 | 0.0 | 7.0 | 0.00 | 0.00 | 0.00 | 47 | 1017.6 |
| 20260510102215 | 57 | 63 | 0.0 | 11.0 | 0.00 | 0.00 | 0.00 | 47 | 1017.5 |
| 20260510101714 | 57 | 8 | 3.0 | 9.0 | 0.00 | 0.00 | 0.00 | 48 | 1017.5 |
| 20260510101213 | 57 | 12 | 1.0 | 9.0 | 0.00 | 0.00 | 0.00 | 49 | 1017.4 |
| 20260510100712 | 57 | 45 | 1.0 | 10.0 | 0.00 | 0.00 | 0.00 | 49 | 1017.3 |
| 20260510100211 | 57 | 14 | 7.0 | 8.0 | 0.00 | 0.00 | 0.00 | 49 | 1017.2 |
| 20260510095710 | 58 | 50 | 4.0 | 11.0 | 0.00 | 0.00 | 0.00 | 51 | 1017.1 |
| 20260510095210 | 58 | 22 | 3.0 | 8.0 | 0.00 | 0.00 | 0.00 | 51 | 1017.0 |
| 20260510094708 | 58 | 22 | 6.0 | 13.0 | 0.00 | 0.00 | 0.00 | 50 | 1016.9 |
| 20260510094207 | 58 | 22 | 4.0 | 15.0 | 0.00 | 0.00 | 0.00 | 48 | 1017.1 |
| 20260510093706 | 59 | 9 | 1.0 | 10.0 | 0.00 | 0.00 | 0.00 | 48 | 1016.9 |
| 20260510093205 | 59 | 52 | 2.0 | 13.0 | 0.00 | 0.00 | 0.00 | 47 | 1016.8 |
| 20260510092704 | 59 | 360 | 2.0 | 13.0 | 0.00 | 0.00 | 0.00 | 45 | 1016.8 |
| 20260510092203 | 59 | 4 | 3.0 | 10.0 | 0.00 | 0.00 | 0.00 | 46 | 1016.7 |
| 20260510091702 | 59 | 338 | 6.0 | 14.0 | 0.00 | 0.00 | 0.00 | 46 | 1016.5 |
| 20260510091201 | 59 | 57 | 2.0 | 12.0 | 0.00 | 0.00 | 0.00 | 47 | 1016.4 |
| 20260510090700 | 59 | 39 | 2.0 | 11.0 | 0.00 | 0.00 | 0.00 | 47 | 1016.6 |
| 20260510090159 | 59 | 37 | 3.0 | 13.0 | 0.00 | 0.00 | 0.00 | 48 | 1016.6 |
| 20260510085658 | 59 | 46 | 6.0 | 15.0 | 0.00 | 0.00 | 0.00 | 48 | 1016.5 |
| 20260510085157 | 60 | 46 | 4.0 | 12.0 | 0.00 | 0.00 | 0.00 | 47 | 1016.6 |
| 20260510084656 | 60 | 8 | 7.0 | 16.0 | 0.00 | 0.00 | 0.00 | 47 | 1016.7 |
| 20260510084155 | 60 | 2 | 6.0 | 13.0 | 0.00 | 0.00 | 0.00 | 47 | 1016.5 |
| 20260510083654 | 60 | 53 | 8.0 | 14.0 | 0.00 | 0.00 | 0.00 | 48 | 1016.5 |
| 20260510083153 | 60 | 37 | 7.0 | 14.0 | 0.00 | 0.00 | 0.00 | 48 | 1016.3 |
| 20260510082652 | 61 | 358 | 4.0 | 13.0 | 0.00 | 0.00 | 0.00 | 50 | 1016.3 |
| 20260510082151 | 61 | 57 | 6.0 | 15.0 | 0.00 | 0.00 | 0.00 | 50 | 1016.3 |
| 20260510081650 | 61 | 7 | 8.0 | 11.0 | 0.00 | 0.00 | 0.00 | 52 | 1016.2 |
| 20260510081149 | 61 | 16 | 9.0 | 10.0 | 0.00 | 0.00 | 0.00 | 53 | 1016.0 |
| 20260510080648 | 61 | 43 | 9.0 | 11.0 | 0.00 | 0.00 | 0.00 | 53 | 1015.9 |
| 20260510080147 | 61 | 25 | 1.0 | 15.0 | 0.00 | 0.00 | 0.00 | 53 | 1015.9 |
| 20260510075646 | 61 | 12 | 5.0 | 8.0 | 0.00 | 0.01 | 0.00 | 55 | 1015.8 |
| 20260510075145 | 61 | 15 | 3.0 | 13.0 | 0.00 | 0.01 | 0.00 | 55 | 1015.6 |
| 20260510074644 | 61 | 21 | 1.0 | 8.0 | 0.00 | 0.01 | 0.00 | 56 | 1015.8 |
| 20260510074143 | 61 | 12 | 0.0 | 8.0 | 0.00 | 0.01 | 0.00 | 57 | 1015.7 |
| 20260510073642 | 61 | 47 | 0.0 | 12.0 | 0.00 | 0.01 | 0.00 | 57 | 1015.5 |
| 20260510073141 | 61 | 19 | 7.0 | 9.0 | 0.00 | 0.01 | 0.00 | 59 | 1015.6 |
| 20260510072640 | 61 | 360 | 2.0 | 6.0 | 0.00 | 0.01 | 0.00 | 60 | 1015.5 |
| 20260510072139 | 62 | 9 | 5.0 | 7.0 | 0.00 | 0.01 | 0.00 | 59 | 1015.4 |
| 20260510071638 | 62 | 11 | 3.0 | 6.0 | 0.00 | 0.01 | 0.00 | 59 | 1015.3 |
| 20260510071137 | 62 | 7 | 0.0 | 1.0 | 0.00 | 0.01 | 0.00 | 58 | 1015.3 |
| 20260510070636 | 63 | 7 | 0.0 | 3.0 | 0.00 | 0.01 | 0.00 | 56 | 1015.2 |
| 20260510070135 | 63 | 21 | 2.0 | 5.0 | 0.00 | 0.01 | 0.00 | 55 | 1015.2 |
| 20260510065634 | 63 | 43 | 0.0 | 4.0 | 0.00 | 0.01 | 0.00 | 55 | 1015.2 |
| 20260510065133 | 63 | 347 | 0.0 | 5.0 | 0.00 | 0.01 | 0.00 | 54 | 1014.9 |
| 20260510064632 | 64 | 2 | 0.0 | 5.0 | 0.00 | 0.01 | 0.00 | 54 | 1014.8 |
| 20260510064131 | 64 | 23 | 0.0 | 4.0 | 0.00 | 0.01 | 0.00 | 54 | 1014.7 |
| 20260510063630 | 64 | 306 | 0.0 | 5.0 | 0.00 | 0.01 | 0.00 | 54 | 1014.7 |
| 20260510063129 | 64 | 33 | 0.0 | 6.0 | 0.00 | 0.01 | 0.00 | 54 | 1014.8 |
| 20260510062628 | 64 | 355 | 0.0 | 5.0 | 0.00 | 0.01 | 0.00 | 54 | 1014.8 |
| 20260510062127 | 64 | 26 | 0.0 | 3.0 | 0.00 | 0.01 | 0.00 | 54 | 1014.6 |
| 20260510061626 | 64 | 85 | 3.0 | 7.0 | 0.00 | 0.01 | 0.00 | 54 | 1014.5 |
| 20260510061125 | 65 | 64 | 3.0 | 8.0 | 0.00 | 0.01 | 0.00 | 53 | 1014.5 |
| 20260510060624 | 65 | 91 | 2.0 | 4.0 | 0.00 | 0.01 | 0.00 | 54 | 1014.5 |
| 20260510060123 | 65 | 75 | 0.0 | 3.0 | 0.00 | 0.01 | 0.00 | 53 | 1014.5 |
| 20260510055622 | 65 | 98 | 0.0 | 4.0 | 0.00 | 0.01 | 0.00 | 53 | 1014.6 |
| 20260510055121 | 65 | 66 | 0.0 | 3.0 | 0.00 | 0.01 | 0.00 | 53 | 1014.6 |
| 20260510054620 | 65 | 19 | 0.0 | 3.0 | 0.00 | 0.01 | 0.00 | 53 | 1014.5 |
| 20260510054119 | 65 | 78 | 0.0 | 0.0 | 0.00 | 0.01 | 0.00 | 52 | 1014.5 |
| 20260510053618 | 66 | 78 | 0.0 | 1.0 | 0.00 | 0.01 | 0.00 | 52 | 1014.6 |
| 20260510053117 | 66 | 85 | 3.0 | 5.0 | 0.00 | 0.01 | 0.00 | 52 | 1014.5 |
| 20260510052616 | 66 | 109 | 0.0 | 5.0 | 0.00 | 0.01 | 0.00 | 51 | 1014.3 |
| 20260510052115 | 66 | 42 | 3.0 | 8.0 | 0.00 | 0.01 | 0.00 | 51 | 1013.9 |
| 20260510051614 | 66 | 39 | 0.0 | 7.0 | 0.00 | 0.01 | 0.00 | 51 | 1013.6 |
| 20260510051113 | 66 | 37 | 0.0 | 4.0 | 0.00 | 0.01 | 0.00 | 51 | 1013.5 |
| 20260510050612 | 66 | 21 | 0.0 | 5.0 | 0.00 | 0.01 | 0.00 | 50 | 1013.5 |
| 20260510050111 | 66 | 46 | 0.0 | 6.0 | 0.00 | 0.01 | 0.00 | 50 | 1013.5 |
| 20260510045610 | 67 | 57 | 0.0 | 8.0 | 0.00 | 0.01 | 0.01 | 49 | 1013.5 |
| 20260510045109 | 67 | 63 | 1.0 | 9.0 | 0.00 | 0.01 | 0.01 | 48 | 1013.5 |
| 20260510044608 | 67 | 36 | 4.0 | 10.0 | 0.00 | 0.01 | 0.01 | 48 | 1013.3 |
| 20260510044107 | 67 | 351 | 2.0 | 10.0 | 0.00 | 0.01 | 0.01 | 48 | 1013.0 |
| 20260510043606 | 67 | 49 | 6.0 | 9.0 | 0.00 | 0.01 | 0.01 | 47 | 1012.9 |
| 20260510043105 | 67 | 358 | 6.0 | 10.0 | 0.00 | 0.01 | 0.01 | 47 | 1012.9 |
| 20260510042604 | 68 | 70 | 1.0 | 10.0 | 0.00 | 0.01 | 0.01 | 47 | 1012.7 |
| 20260510042103 | 68 | 46 | 0.0 | 9.0 | 0.00 | 0.01 | 0.01 | 46 | 1012.6 |
| 20260510041602 | 68 | 30 | 2.0 | 13.0 | 0.00 | 0.01 | 0.01 | 47 | 1012.6 |
| 20260510041101 | 68 | 18 | 9.0 | 12.0 | 0.00 | 0.01 | 0.01 | 47 | 1012.4 |
| 20260510040600 | 68 | 47 | 6.0 | 10.0 | 0.00 | 0.01 | 0.01 | 49 | 1012.2 |
| 20260510040059 | 68 | 60 | 4.0 | 10.0 | 0.00 | 0.01 | 0.01 | 50 | 1012.2 |
| 20260510035558 | 68 | 30 | 5.0 | 10.0 | 0.00 | 0.01 | 0.01 | 49 | 1012.1 |
| 20260510035057 | 68 | 15 | 2.0 | 11.0 | 0.00 | 0.01 | 0.01 | 49 | 1011.9 |
| 20260510034556 | 68 | 109 | 5.0 | 11.0 | 0.00 | 0.01 | 0.01 | 50 | 1011.8 |
| 20260510034055 | 68 | 4 | 0.0 | 5.0 | 0.00 | 0.01 | 0.01 | 51 | 1011.8 |
| 20260510033554 | 68 | 9 | 1.0 | 7.0 | 0.00 | 0.01 | 0.01 | 51 | 1011.9 |
| 20260510033053 | 68 | 26 | 1.0 | 6.0 | 0.00 | 0.01 | 0.01 | 52 | 1011.8 |
| 20260510032552 | 68 | 360 | 2.0 | 8.0 | 0.00 | 0.01 | 0.01 | 52 | 1011.8 |
| 20260510032051 | 68 | 347 | 0.0 | 6.0 | 0.00 | 0.01 | 0.01 | 54 | 1011.8 |
| 20260510031550 | 68 | 12 | 1.0 | 5.0 | 0.00 | 0.01 | 0.01 | 55 | 1011.8 |
| 20260510031050 | 68 | 8 | 0.0 | 2.0 | 0.00 | 0.01 | 0.01 | 54 | 1011.8 |
| 20260510030548 | 68 | 331 | 0.0 | 5.0 | 0.00 | 0.01 | 0.01 | 52 | 1011.9 |
| 20260510030047 | 69 | 1 | 3.0 | 4.0 | 0.00 | 0.01 | 0.01 | 51 | 1011.9 |
| 20260510025546 | 69 | 333 | 0.0 | 0.0 | 0.00 | 0.01 | 0.01 | 50 | 1012.0 |
| 20260510025045 | 69 | 333 | 0.0 | 0.0 | 0.00 | 0.01 | 0.01 | 50 | 1011.7 |
| 20260510024544 | 69 | 333 | 0.0 | 0.0 | 0.00 | 0.01 | 0.01 | 49 | 1011.7 |
| 20260510024043 | 69 | 333 | 0.0 | 0.0 | 0.00 | 0.01 | 0.01 | 49 | 1011.4 |
| 20260510023543 | 69 | 333 | 0.0 | 0.0 | 0.00 | 0.01 | 0.01 | 50 | 1011.2 |
| 20260510023041 | 69 | 333 | 0.0 | 0.0 | 0.00 | 0.01 | 0.01 | 50 | 1011.0 |
| 20260510022541 | 69 | 333 | 0.0 | 0.0 | 0.00 | 0.01 | 0.01 | 49 | 1010.9 |
| 20260510022039 | 69 | 333 | 0.0 | 0.0 | 0.00 | 0.01 | 0.01 | 49 | 1010.8 |
| 20260510021538 | 69 | 333 | 0.0 | 1.0 | 0.00 | 0.01 | 0.01 | 49 | 1010.6 |
| 20260510021037 | 69 | 333 | 0.0 | 0.0 | 0.00 | 0.01 | 0.01 | 49 | 1010.5 |
| 20260510020537 | 70 | 333 | 0.0 | 1.0 | 0.00 | 0.01 | 0.01 | 48 | 1010.4 |
| 20260510020035 | 70 | 8 | 0.0 | 8.0 | 0.00 | 0.01 | 0.01 | 48 | 1010.3 |
| 20260510015534 | 70 | 14 | 1.0 | 6.0 | 0.00 | 0.01 | 0.01 | 48 | 1010.1 |
| 20260510015033 | 70 | 26 | 1.0 | 9.0 | 0.00 | 0.01 | 0.01 | 48 | 1010.1 |
| 20260510014532 | 70 | 16 | 0.0 | 3.0 | 0.00 | 0.01 | 0.01 | 48 | 1010.2 |
| 20260510014031 | 70 | 358 | 0.0 | 3.0 | 0.00 | 0.01 | 0.01 | 48 | 1010.2 |
| 20260510013530 | 70 | 5 | 1.0 | 9.0 | 0.00 | 0.01 | 0.01 | 47 | 1010.1 |
| 20260510013030 | 70 | 12 | 2.0 | 5.0 | 0.00 | 0.01 | 0.01 | 47 | 1010.0 |
| 20260510012529 | 70 | 340 | 2.0 | 8.0 | 0.00 | 0.01 | 0.01 | 47 | 1010.0 |
| 20260510012027 | 71 | 337 | 1.0 | 3.0 | 0.00 | 0.01 | 0.01 | 47 | 1009.9 |
| 20260510011527 | 71 | 334 | 0.0 | 5.0 | 0.00 | 0.01 | 0.01 | 47 | 1009.7 |
| 20260510011330 | 71 | 347 | 3.0 | 11.0 | 0.00 | 0.01 | 0.01 | 46 | 1009.7 |
| 20260510011025 | 71 | 347 | 3.0 | 11.0 | 0.00 | 0.01 | 0.01 | 46 | 1009.7 |
| 20260510010524 | 71 | 333 | 4.0 | 9.0 | 0.00 | 0.01 | 0.01 | 47 | 1009.6 |
| 20260510010023 | 71 | 7 | 0.0 | 0.0 | 0.00 | 0.01 | 0.01 | 46 | 1009.3 |
| 20260510005523 | 71 | 7 | 0.0 | 0.0 | 0.00 | 0.01 | 0.01 | 46 | 1009.4 |
| 20260510005022 | 72 | 7 | 0.0 | 4.0 | 0.00 | 0.01 | 0.01 | 46 | 1009.3 |
| 20260510004521 | 72 | 348 | 0.0 | 4.0 | 0.00 | 0.01 | 0.01 | 46 | 1009.3 |
| 20260510004019 | 72 | 4 | 0.0 | 3.0 | 0.00 | 0.01 | 0.01 | 46 | 1009.3 |
| 20260510003519 | 72 | 19 | 3.0 | 3.0 | 0.00 | 0.01 | 0.01 | 46 | 1009.0 |
| 20260510003017 | 72 | 5 | 0.0 | 8.0 | 0.00 | 0.01 | 0.01 | 45 | 1009.1 |
| 20260510002516 | 72 | 334 | 7.0 | 11.0 | 0.00 | 0.01 | 0.01 | 44 | 1009.0 |
| 20260510002015 | 73 | 26 | 4.0 | 7.0 | 0.00 | 0.01 | 0.01 | 44 | 1009.0 |
| 20260510001514 | 73 | 12 | 0.0 | 0.0 | 0.00 | 0.01 | 0.01 | 44 | 1008.9 |
| 20260510001014 | 73 | 348 | 1.0 | 7.0 | 0.00 | 0.01 | 0.01 | 44 | 1008.9 |
| 20260510000512 | 73 | 336 | 0.0 | 10.0 | 0.00 | 0.01 | 0.01 | 43 | 1008.9 |
| 20260510000011 | 74 | 8 | 1.0 | 7.0 | 0.00 | 0.01 | 0.01 | 42 | 1008.8 |
| 20260509235510 | 74 | 11 | 2.0 | 2.0 | 0.00 | 0.01 | 0.01 | 42 | 1008.7 |
| 20260509235009 | 74 | 340 | 0.0 | 6.0 | 0.00 | 0.01 | 0.01 | 42 | 1008.7 |
| 20260509234508 | 75 | 334 | 0.0 | 6.0 | 0.00 | 0.01 | 0.01 | 41 | 1008.6 |
| 20260509234007 | 75 | 338 | 1.0 | 4.0 | 0.00 | 0.01 | 0.01 | 40 | 1008.4 |
| 20260509233506 | 75 | 337 | 2.0 | 5.0 | 0.00 | 0.01 | 0.01 | 41 | 1008.5 |
| 20260509233005 | 75 | 358 | 1.0 | 5.0 | 0.00 | 0.01 | 0.01 | 40 | 1008.5 |
| 20260509232504 | 75 | 12 | 1.0 | 9.0 | 0.00 | 0.01 | 0.01 | 39 | 1008.5 |
| 20260509232132 | 75 | 9 | 2.0 | 12.0 | 0.00 | 0.01 | 0.01 | 39 | 1008.5 |
| 20260509232003 | 75 | 9 | 2.0 | 12.0 | 0.00 | 0.01 | 0.01 | 39 | 1008.5 |
| 20260509231503 | 76 | 358 | 5.0 | 10.0 | 0.00 | 0.01 | 0.01 | 37 | 1008.5 |
| 20260509231001 | 76 | 348 | 2.0 | 8.0 | 0.00 | 0.01 | 0.01 | 37 | 1008.4 |
| 20260509230546 | 77 | 1 | 9.0 | 11.0 | 0.00 | 0.01 | 0.01 | 35 | 1008.3 |
| 20260509230500 | 77 | 1 | 9.0 | 11.0 | 0.00 | 0.01 | 0.01 | 35 | 1008.3 |
| 20260509225959 | 79 | 7 | 10.0 | 10.0 | 0.00 | 0.01 | 0.01 | 31 | 1008.1 |
| 20260509225458 | 79 | 324 | 2.0 | 3.0 | 0.00 | 0.01 | 0.01 | 29 | 1007.8 |
| 20260509224957 | 79 | 292 | 2.0 | 4.0 | 0.00 | 0.01 | 0.01 | 28 | 1007.8 |
| 20260509224456 | 79 | 267 | 0.0 | 7.0 | 0.00 | 0.01 | 0.01 | 28 | 1007.6 |
| 20260509223955 | 80 | 315 | 1.0 | 9.0 | 0.00 | 0.01 | 0.01 | 27 | 1007.6 |
| 20260509223455 | 80 | 258 | 3.0 | 13.0 | 0.00 | 0.01 | 0.01 | 26 | 1007.5 |
| 20260509222954 | 81 | 133 | 1.0 | 8.0 | 0.00 | 0.01 | 0.01 | 30 | 1007.4 |
| 20260509222452 | 81 | 253 | 0.0 | 5.0 | 0.00 | 0.01 | 0.01 | 28 | 1007.4 |
| 20260509221951 | 81 | 264 | 4.0 | 5.0 | 0.00 | 0.01 | 0.01 | 28 | 1007.3 |
| 20260509221451 | 82 | 285 | 2.0 | 10.0 | 0.00 | 0.01 | 0.01 | 27 | 1007.3 |
| 20260509220950 | 82 | 255 | 3.0 | 11.0 | 0.00 | 0.01 | 0.01 | 24 | 1007.3 |
| 20260509220449 | 82 | 267 | 2.0 | 10.0 | 0.00 | 0.01 | 0.01 | 26 | 1007.3 |
| 20260509215947 | 83 | 227 | 5.0 | 8.0 | 0.00 | 0.01 | 0.01 | 25 | 1007.4 |
| 20260509215446 | 83 | 275 | 4.0 | 7.0 | 0.00 | 0.01 | 0.01 | 26 | 1007.3 |
| 20260509214946 | 83 | 264 | 0.0 | 11.0 | 0.00 | 0.01 | 0.01 | 28 | 1007.3 |
| 20260509214444 | 83 | 282 | 5.0 | 8.0 | 0.00 | 0.01 | 0.01 | 27 | 1007.3 |
| 20260509213943 | 83 | 265 | 7.0 | 9.0 | 0.00 | 0.01 | 0.01 | 27 | 1007.3 |
| 20260509213441 | 83 | 315 | 5.0 | 8.0 | 0.00 | 0.01 | 0.01 | 26 | 1007.3 |
| 20260509212941 | 83 | 119 | 2.0 | 5.0 | 0.00 | 0.01 | 0.01 | 29 | 1007.4 |
| 20260509212440 | 83 | 239 | 5.0 | 7.0 | 0.00 | 0.01 | 0.01 | 25 | 1007.4 |
| 20260509211939 | 83 | 222 | 0.0 | 6.0 | 0.00 | 0.01 | 0.01 | 25 | 1007.5 |
| 20260509211437 | 83 | 226 | 5.0 | 11.0 | 0.00 | 0.01 | 0.01 | 26 | 1007.5 |
| 20260509210936 | 83 | 271 | 6.0 | 10.0 | 0.00 | 0.01 | 0.01 | 26 | 1007.5 |
| 20260509210435 | 83 | 348 | 6.0 | 12.0 | 0.00 | 0.01 | 0.01 | 26 | 1007.6 |
| 20260509205934 | 83 | 180 | 5.0 | 14.0 | 0.00 | 0.02 | 0.01 | 27 | 1007.6 |
| 20260509205433 | 82 | 309 | 0.0 | 5.0 | 0.00 | 0.02 | 0.01 | 29 | 1007.6 |
| 20260509204932 | 82 | 299 | 4.0 | 7.0 | 0.00 | 0.02 | 0.01 | 30 | 1007.6 |
| 20260509204431 | 82 | 195 | 5.0 | 12.0 | 0.00 | 0.02 | 0.01 | 29 | 1007.7 |
| 20260509203931 | 82 | 194 | 3.0 | 7.0 | 0.00 | 0.02 | 0.01 | 30 | 1007.7 |
| 20260509203430 | 82 | 284 | 1.0 | 9.0 | 0.00 | 0.02 | 0.01 | 28 | 1007.8 |
| 20260509202927 | 81 | 250 | 1.0 | 8.0 | 0.00 | 0.02 | 0.01 | 32 | 1007.9 |
| 20260509202426 | 82 | 305 | 1.0 | 9.0 | 0.00 | 0.02 | 0.01 | 34 | 1008.0 |
| 20260509201925 | 81 | 217 | 4.0 | 10.0 | 0.00 | 0.02 | 0.01 | 34 | 1008.0 |
| 20260509201424 | 81 | 209 | 1.0 | 12.0 | 0.00 | 0.02 | 0.01 | 31 | 1008.1 |
| 20260509200924 | 81 | 230 | 2.0 | 10.0 | 0.00 | 0.02 | 0.01 | 33 | 1008.2 |
| 20260509200422 | 81 | 288 | 4.0 | 4.0 | 0.00 | 0.02 | 0.01 | 35 | 1008.2 |
| 20260509195921 | 81 | 312 | 7.0 | 7.0 | 0.00 | 0.04 | 0.01 | 32 | 1008.3 |
| 20260509195420 | 81 | 239 | 2.0 | 5.0 | 0.00 | 0.04 | 0.01 | 34 | 1008.3 |
| 20260509194920 | 81 | 331 | 0.0 | 10.0 | 0.00 | 0.04 | 0.01 | 35 | 1008.4 |
| 20260509194418 | 80 | 278 | 4.0 | 13.0 | 0.00 | 0.04 | 0.01 | 32 | 1008.4 |
| 20260509193918 | 80 | 282 | 4.0 | 7.0 | 0.00 | 0.04 | 0.01 | 32 | 1008.4 |
| 20260509193416 | 80 | 316 | 4.0 | 11.0 | 0.00 | 0.04 | 0.01 | 33 | 1008.5 |
| 20260509192914 | 80 | 226 | 7.0 | 9.0 | 0.00 | 0.04 | 0.01 | 35 | 1008.4 |
| 20260509192413 | 80 | 230 | 5.0 | 8.0 | 0.00 | 0.04 | 0.01 | 33 | 1008.5 |
| 20260509191912 | 80 | 291 | 3.0 | 10.0 | 0.00 | 0.04 | 0.01 | 32 | 1008.4 |
| 20260509191412 | 80 | 291 | 5.0 | 10.0 | 0.00 | 0.04 | 0.01 | 32 | 1008.4 |
| 20260509190911 | 80 | 188 | 7.0 | 11.0 | 0.00 | 0.04 | 0.01 | 34 | 1008.6 |
| 20260509190409 | 79 | 251 | 3.0 | 9.0 | 0.00 | 0.04 | 0.01 | 34 | 1008.6 |
| 20260509185909 | 79 | 203 | 3.0 | 9.0 | 0.00 | 0.04 | 0.01 | 37 | 1008.6 |
| 20260509185407 | 79 | 282 | 0.0 | 5.0 | 0.00 | 0.04 | 0.01 | 38 | 1008.6 |
| 20260509184907 | 79 | 140 | 5.0 | 9.0 | 0.00 | 0.04 | 0.01 | 38 | 1008.6 |
| 20260509184405 | 79 | 268 | 0.0 | 6.0 | 0.00 | 0.04 | 0.01 | 42 | 1008.6 |
| 20260509183905 | 78 | 210 | 0.0 | 3.0 | 0.00 | 0.04 | 0.01 | 41 | 1008.8 |
| 20260509183404 | 78 | 278 | 0.0 | 9.0 | 0.00 | 0.04 | 0.01 | 42 | 1008.8 |
| 20260509182903 | 78 | 323 | 3.0 | 3.0 | 0.00 | 0.04 | 0.01 | 39 | 1008.8 |
| 20260509182402 | 78 | 268 | 0.0 | 8.0 | 0.00 | 0.04 | 0.01 | 39 | 1008.8 |
| 20260509181900 | 78 | 322 | 3.0 | 8.0 | 0.00 | 0.04 | 0.01 | 41 | 1008.9 |
| 20260509181359 | 78 | 277 | 0.0 | 4.0 | 0.00 | 0.04 | 0.01 | 41 | 1008.9 |
| 20260509180856 | 77 | 229 | 0.0 | 3.0 | 0.00 | 0.04 | 0.01 | 41 | 1009.0 |
| 20260509180355 | 77 | 225 | 1.0 | 7.0 | 0.00 | 0.04 | 0.01 | 42 | 1009.1 |
| 20260509175855 | 77 | 292 | 6.0 | 6.0 | 0.00 | 0.04 | 0.01 | 42 | 1009.1 |
| 20260509175352 | 77 | 327 | 0.0 | 0.0 | 0.00 | 0.04 | 0.01 | 44 | 1009.1 |
| 20260509174851 | 77 | 327 | 0.0 | 5.0 | 0.00 | 0.04 | 0.01 | 44 | 1009.1 |
| 20260509174351 | 77 | 243 | 0.0 | 7.0 | 0.00 | 0.04 | 0.01 | 43 | 1009.1 |
| 20260509173850 | 77 | 257 | 1.0 | 5.0 | 0.00 | 0.04 | 0.01 | 43 | 1009.3 |
| 20260509173348 | 77 | 251 | 0.0 | 4.0 | 0.00 | 0.04 | 0.01 | 44 | 1009.3 |
| 20260509172847 | 76 | 202 | 1.0 | 3.0 | 0.00 | 0.04 | 0.01 | 48 | 1009.4 |
| 20260509172347 | 75 | 270 | 0.0 | 2.0 | 0.00 | 0.04 | 0.01 | 46 | 1009.4 |
| 20260509171845 | 75 | 258 | 0.0 | 4.0 | 0.00 | 0.04 | 0.01 | 47 | 1009.4 |
| 20260509171343 | 75 | 322 | 0.0 | 4.0 | 0.00 | 0.04 | 0.01 | 46 | 1009.4 |
| 20260509170843 | 75 | 232 | 0.0 | 7.0 | 0.00 | 0.04 | 0.01 | 46 | 1009.6 |
| 20260509170340 | 75 | 203 | 0.0 | 5.0 | 0.00 | 0.04 | 0.01 | 47 | 1009.6 |
| 20260509165840 | 74 | 188 | 0.0 | 0.0 | 0.00 | 0.04 | 0.01 | 48 | 1009.6 |
| 20260509165338 | 74 | 188 | 0.0 | 5.0 | 0.00 | 0.04 | 0.01 | 49 | 1009.6 |
| 20260509164838 | 73 | 260 | 0.0 | 5.0 | 0.00 | 0.04 | 0.01 | 48 | 1009.7 |
| 20260509164336 | 73 | 223 | 2.0 | 5.0 | 0.00 | 0.04 | 0.01 | 47 | 1009.6 |
| 20260509163836 | 73 | 246 | 0.0 | 6.0 | 0.00 | 0.04 | 0.01 | 49 | 1009.6 |
| 20260509163334 | 73 | 216 | 3.0 | 6.0 | 0.00 | 0.04 | 0.01 | 47 | 1009.7 |
| 20260509162833 | 73 | 243 | 0.0 | 4.0 | 0.00 | 0.04 | 0.01 | 52 | 1009.6 |
| 20260509162332 | 73 | 209 | 0.0 | 0.0 | 0.00 | 0.04 | 0.01 | 52 | 1009.6 |
| 20260509161831 | 72 | 209 | 0.0 | 5.0 | 0.00 | 0.04 | 0.01 | 53 | 1009.4 |
| 20260509161330 | 71 | 202 | 0.0 | 5.0 | 0.00 | 0.04 | 0.01 | 55 | 1009.4 |
| 20260509160829 | 71 | 284 | 0.0 | 3.0 | 0.00 | 0.04 | 0.01 | 55 | 1009.4 |